Погода в Высоком

Украина / Киевская область     49°14′56″N   29°48′54″E
темп.,
°C
ветер,
м/с
пор.,
м/с
влажн.,
%
обл.,
%
осадки,
мм/ч
давл.,
гПа
погр.,
м
28 октября, чт
чт2800:00+6зсз338727 0.0 102732
03:00+5з358770 0.0 102665
06:00+5з37925 0.0 1026119
09:00+6з388672 0.0 1026209
12:00+12зсз5858100 0.0 1026600
15:00+15сз695222 0.0 10241151
18:00+12зсз4868100 0.0 1025282
21:00+11сз3874100 0.0 1026344
29 октября, пт
пт2900:00+11ссз267990 0.0 1026189
03:00+9с128948 0.0 102714
06:00+8св11935 0.0 102710
09:00+9вюв11905 0.0 102841
12:00+13юв22685 0.0 1028602
15:00+15юв33556 0.0 1027972
18:00+12юв33655 0.0 102738
21:00+10юв35715 0.0 102869
30 октября, сб
сб3000:00+8юв36815 0.0 102993
03:00+7ююв36861 0.0 1029107
06:00+6ююв35845 0.0 102984
09:00+7юв38715 0.0 1030199
12:00+13ююв57455 0.0 1029649
15:00+14ююв67420 0.0 1028943
18:00+10ююв48600 0.0 1028144
21:00+8ююв410670 0.0 1029200
31 октября, вс
вс3100:00+7ююв411730 0.0 1029210
03:00+6ююв411760 0.0 1029213
05:00+5ююв410810 0.0 1028198
08:00+6ююв411770 0.0 1028296
11:00+12ююв69500 0.0 1027645
14:00+14ююв57400 0.0 1025889
17:00+10юв35560 0.0 102567
20:00+8юв36650 0.0 1025109
31 октября, вс
вс3123:00+6юв48690 0.0 1024124
02:00+5юв38730 0.0 1023116
05:00+4юв35790 0.0 102264
08:00+5вюв38750 0.0 1021220
11:00+11юв58550 0.0 1019645
14:00+13ююв57490 0.0 1017902
17:00+9юв47650 0.0 1016104
20:00+8ююв49765 0.0 1016156